Latest Weather Observations for Swanbourne

IDW60901

Issued at 7:51 pm WST Friday 12 February 2016 (issued every 10 minutes, with the page automatically refreshed every 10 minutes)

About weather observations | Map of Perth area stations | Latest observations for Perth area | Other Formats
Station Details ID: 009215 Name: SWANBOURNE Lat: -31.96 Lon: 115.76 Height: 40.96 m
Data from the previous 72 hours. | See also: Recent months at Swanbourne
Date/Time
WST
Tmp

°C
App
Tmp
°C
Dew
Point
°C
Rel
Hum
%
Delta-T

°C
Wind Press
QNH
hPa
Press
MSL
hPa
Rain
since
9 am
mm
Dir
 
Spd
km/h
Gust
km/h
Spd
kts
Gust
kts
12/07:30pm 22.1 19.8 18.5 80 2.3 SSW 28 39 15 21 - - 0.0
12/07:00pm 22.4 19.6 18.2 77 2.6 SSW 30 43 16 23 - - 0.0
12/06:30pm 22.8 19.9 17.9 74 3.1 SSW 30 43 16 23 - - 0.0
12/06:00pm 23.6 21.5 18.0 71 3.5 SSW 26 43 14 23 - - 0.0
12/05:30pm 23.4 20.0 17.8 71 3.5 SSW 32 46 17 25 - - 0.0
12/05:00pm 23.7 20.4 17.9 70 3.6 SSW 32 46 17 25 - - 0.0
12/04:30pm 23.9 20.4 17.4 67 4.0 SSW 32 46 17 25 - - 0.0
12/04:00pm 24.3 21.5 17.3 65 4.3 SSW 28 43 15 23 - - 0.0
12/03:30pm 24.3 21.1 17.3 65 4.3 SSW 30 43 16 23 - - 0.0
12/03:00pm 25.5 23.2 17.7 62 4.9 SSW 26 43 14 23 - - 0.0
12/02:30pm 25.1 21.7 16.8 60 5.1 SSW 30 43 16 23 - - 0.0
12/02:00pm 25.0 22.1 17.0 61 5.0 SSW 28 43 15 23 - - 0.0
12/01:30pm 24.8 21.5 17.0 62 4.8 SSW 30 43 16 23 - - 0.0
12/01:00pm 24.6 21.3 17.1 63 4.7 SSW 30 43 16 23 - - 0.0
12/12:30pm 24.5 21.3 17.2 63 4.5 SSW 30 43 16 23 - - 0.0
12/12:00pm 25.7 24.0 18.1 63 4.8 SSW 24 39 13 21 - - 0.0
12/11:30am 25.6 24.6 18.8 66 4.3 SSW 22 33 12 18 - - 0.0
12/11:00am 25.6 24.7 19.0 67 4.2 SSW 22 32 12 17 - - 0.0
12/10:30am 24.7 24.0 18.6 69 3.9 SSW 20 32 11 17 - - 0.0
12/10:00am 23.8 22.7 18.7 73 3.2 SW 22 35 12 19 - - 0.0
12/09:30am 24.1 24.0 18.7 72 3.4 SSW 17 24 9 13 - - 0.0
12/09:00am 23.9 24.4 18.3 71 3.5 SSW 13 19 7 10 - - 0.0
12/08:30am 23.5 24.3 18.2 72 3.3 SSW 11 19 6 10 - - 0.0
12/08:00am 22.7 23.6 17.6 73 3.2 S 9 15 5 8 - - 0.0
12/07:30am 21.7 22.6 18.3 81 2.1 SSE 11 17 6 9 - - 0.0
12/07:00am 20.7 21.2 18.3 86 1.5 S 13 19 7 10 - - 0.0
12/06:30am 19.7 21.0 19.2 97 0.3 SSE 11 20 6 11 - - 0.0
12/06:00am 19.0 20.8 18.7 98 0.2 SSE 7 13 4 7 - - 0.0
12/05:30am 19.6 21.7 19.3 98 0.2 SSE 7 15 4 8 - - 0.0
12/05:00am 19.9 21.7 19.6 98 0.2 SSE 9 13 5 7 - - 0.0
12/04:30am 20.3 22.7 20.0 98 0.2 SSE 7 11 4 6 - - 0.0
12/04:00am 20.6 22.8 20.3 98 0.2 SSE 9 13 5 7 - - 0.0
12/03:30am 20.9 23.2 20.6 98 0.2 SSE 9 13 5 7 - - 0.0
12/03:00am 21.0 23.7 20.7 98 0.2 SSE 7 13 4 7 - - 0.0
12/02:30am 21.2 23.6 20.9 98 0.2 SSE 9 13 5 7 - - 0.0
12/02:00am 21.5 24.1 21.2 98 0.2 SSE 9 13 5 7 - - 0.0
12/01:30am 21.8 23.8 21.5 98 0.2 S 13 22 7 12 - - 0.0
12/01:00am 21.9 24.3 21.6 98 0.2 S 11 17 6 9 - - 0.0
12/12:30am 21.9 23.8 21.4 97 0.3 S 13 22 7 12 - - 0.0
12/12:00am 22.1 23.8 21.6 97 0.3 S 15 22 8 12 - - 0.0
 
Date/Time
WST
Tmp

°C
App
Tmp
°C
Dew
Point
°C
Rel
Hum
%
Delta-T

°C
Wind Press
QNH
hPa
Press
MSL
hPa
Rain
since
9 am
mm
Dir
 
Spd
km/h
Gust
km/h
Spd
kts
Gust
kts
11/11:30pm 22.2 22.9 21.2 94 0.7 S 19 32 10 17 - - 0.0
11/11:00pm 22.1 22.9 21.3 95 0.5 SSW 19 30 10 16 - - 0.0
11/10:30pm 22.2 22.7 21.9 98 0.2 SSW 22 33 12 18 - - 0.0
11/10:00pm 22.1 22.4 21.6 97 0.3 SSW 22 33 12 18 - - 0.0
11/09:30pm 22.3 22.1 22.0 98 0.2 SSW 26 37 14 20 - - 0.0
11/09:00pm 22.4 22.7 21.6 95 0.5 SSW 22 32 12 17 - - 0.0
11/08:30pm 22.4 23.2 21.4 94 0.7 SSW 19 30 10 16 - - 0.0
11/08:00pm 22.4 22.4 21.0 92 0.9 SSW 22 32 12 17 - - 0.0
11/07:30pm 22.6 23.1 21.2 92 0.9 SSW 20 30 11 16 - - 0.0
11/07:00pm 22.9 23.3 20.6 87 1.5 SSW 19 28 10 15 - - 0.0
11/06:30pm 23.5 23.8 20.4 83 2.0 SSW 19 28 10 15 - - 0.0
11/06:00pm 24.4 25.2 20.7 80 2.4 SW 17 26 9 14 - - 0.0
11/05:30pm 24.9 25.3 20.6 77 2.8 SW 19 24 10 13 - - 0.0
11/05:00pm 25.3 25.6 20.5 75 3.1 SW 19 26 10 14 - - 0.0
11/04:30pm 26.0 26.4 20.6 72 3.5 SW 19 28 10 15 - - 0.0
11/04:00pm 27.0 28.7 22.4 76 3.1 SW 17 24 9 13 - - 0.0
11/03:30pm 26.6 28.7 22.4 78 2.8 SSW 15 20 8 11 - - 0.0
11/03:00pm 27.1 28.5 21.8 73 3.6 SW 17 24 9 13 - - 0.0
11/02:30pm 27.1 29.1 22.3 75 3.2 SW 15 20 8 11 - - 0.0
11/02:00pm 25.9 27.9 21.6 77 2.9 SW 13 20 7 11 - - 0.0
11/01:30pm 26.1 27.4 21.7 77 2.9 WSW 17 22 9 12 - - 0.0
11/01:00pm 26.3 28.4 21.7 76 3.1 WSW 13 19 7 10 - - 0.0
11/12:30pm 25.9 28.6 21.3 76 3.0 W 9 17 5 9 - - 0.0
11/12:00pm 26.5 28.5 21.5 74 3.3 WSW 13 19 7 10 - - 0.0
11/11:30am 26.0 27.7 21.0 74 3.3 W 13 19 7 10 - - 0.0
11/11:00am 25.5 26.7 20.7 75 3.2 WNW 15 20 8 11 - - 0.0
11/10:30am 25.1 27.0 20.6 76 2.9 WNW 11 17 6 9 - - 0.0
11/10:00am 25.2 27.6 21.5 80 2.5 WNW 11 17 6 9 - - 0.0
11/09:30am 24.8 27.0 21.9 84 1.9 WNW 13 20 7 11 - - 0.0
11/09:00am 24.7 27.7 22.6 88 1.4 NW 11 17 6 9 - - 0.2
11/08:30am 24.1 28.1 23.8 98 0.2 NW 9 13 5 7 - - 0.2
11/08:00am 23.6 27.8 23.4 99 0.1 NW 7 11 4 6 - - 0.2
11/07:30am 22.9 27.0 22.9 100 0.0 NW 6 11 3 6 - - 0.2
11/07:00am 22.8 26.8 22.8 100 0.0 WNW 6 11 3 6 - - 0.2
11/06:30am 22.4 26.0 22.4 100 0.0 NW 7 9 4 5 - - 0.2
11/06:00am 21.8 25.3 21.8 100 0.0 N 6 9 3 5 - - 0.2
11/05:30am 21.1 24.5 20.9 99 0.1 NNW 4 9 2 5 - - 0.0
11/05:00am 20.2 23.2 20.0 99 0.1 ENE 4 7 2 4 - - 0.0
11/04:30am 21.8 26.3 21.6 99 0.1 CALM 0 0 0 0 - - 0.0
11/04:00am 21.7 26.2 21.5 99 0.1 CALM 0 0 0 0 - - 0.0
11/03:30am 22.1 26.8 21.9 99 0.1 CALM 0 0 0 0 - - 0.0
11/03:00am 21.9 26.5 21.7 99 0.1 CALM 0 0 0 0 - - 0.0
11/02:30am 22.0 25.5 21.8 99 0.1 W 6 6 3 3 - - 0.0
11/02:00am 22.2 26.2 22.0 99 0.1 WSW 4 6 2 3 - - 0.0
11/01:30am 22.0 25.5 21.8 99 0.1 SSW 6 7 3 4 - - 0.0
11/01:00am 22.3 25.8 22.1 99 0.1 W 7 7 4 4 - - 0.0
11/12:30am 22.4 26.0 22.1 98 0.2 S 6 7 3 4 - - 0.0
11/12:00am 22.7 26.5 22.4 98 0.2 SSW 6 9 3 5 - - 0.0
 
Date/Time
WST
Tmp

°C
App
Tmp
°C
Dew
Point
°C
Rel
Hum
%
Delta-T

°C
Wind Press
QNH
hPa
Press
MSL
hPa
Rain
since
9 am
mm
Dir
 
Spd
km/h
Gust
km/h
Spd
kts
Gust
kts
10/11:30pm 22.8 26.5 22.5 98 0.2 SSW 7 9 4 5 - - 0.0
10/11:00pm 23.1 26.2 22.1 94 0.7 SW 9 11 5 6 - - 0.0
10/10:30pm 23.5 26.7 20.4 83 2.0 SW 4 6 2 3 - - 0.0
10/10:00pm 23.4 26.1 20.7 85 1.8 S 7 11 4 6 - - 0.0
10/09:30pm 23.9 26.4 21.0 84 1.9 SSW 9 11 5 6 - - 0.0
10/09:00pm 24.3 25.9 20.8 81 2.3 SW 13 19 7 10 - - 0.0
10/08:30pm 24.4 26.3 20.5 79 2.5 SW 11 17 6 9 - - 0.0
10/08:00pm 24.5 26.7 20.4 78 2.7 SW 9 13 5 7 - - 0.0
10/07:30pm 24.9 27.5 20.4 76 2.9 SSW 7 11 4 6 - - 0.0
10/07:00pm 25.7 28.1 20.9 75 3.2 SSW 9 13 5 7 - - 0.0
10/06:30pm 26.4 28.1 20.9 72 3.6 SSW 13 19 7 10 - - 0.0
10/06:00pm 27.4 29.4 20.7 67 4.4 SSW 11 17 6 9 - - 0.0
10/05:30pm 28.3 28.9 19.5 59 5.7 SSW 15 20 8 11 - - 0.0
10/05:00pm 30.1 29.9 17.5 46 8.0 SSW 15 20 8 11 - - 0.0
10/04:30pm 29.8 29.7 16.9 45 8.1 SSW 13 20 7 11 - - 0.0
10/04:00pm 29.9 29.2 17.4 47 7.9 SSW 17 28 9 15 - - 0.0
10/03:30pm 29.8 28.7 17.3 47 7.9 SW 19 24 10 13 - - 0.0
10/03:00pm 29.9 28.5 15.6 42 8.8 SSW 17 24 9 13 - - 0.0
10/02:30pm 29.3 28.1 17.5 49 7.5 SW 20 28 11 15 - - 0.0
10/02:00pm 29.5 28.2 16.7 46 8.0 SSW 19 26 10 14 - - 0.0
10/01:30pm 31.0 30.3 17.3 43 8.7 SW 17 26 9 14 - - 0.0
10/01:00pm 32.1 30.8 14.7 35 10.7 SW 15 24 8 13 - - 0.0
10/12:30pm 30.8 30.1 16.4 42 9.0 SW 15 24 8 13 - - 0.0
10/12:00pm 29.7 30.0 19.7 55 6.6 WSW 17 24 9 13 - - 0.0
10/11:30am 30.1 29.4 15.4 41 9.1 WSW 13 19 7 10 - - 0.0
10/11:00am 29.8 29.5 15.5 42 8.8 WSW 11 17 6 9 - - 0.0
10/10:30am 29.9 31.1 17.4 47 7.9 WSW 7 13 4 7 - - 0.0
10/10:00am 28.7 30.1 17.9 52 6.9 W 7 11 4 6 - - 0.0
10/09:30am 32.1 30.3 9.6 25 12.8 NE 9 17 5 9 - - 0.0
10/09:00am 31.1 29.6 12.0 31 11.2 E 11 17 6 9 - - 0.0
10/08:30am 29.0 29.3 14.4 41 8.8 ENE 6 9 3 5 - - 0.0
10/08:00am 28.0 29.1 15.6 46 7.6 E 4 9 2 5 - - 0.0
10/07:30am 26.2 29.5 19.1 65 4.6 CALM 0 0 0 0 - - 0.0
10/07:00am 24.1 29.3 23.6 97 0.3 WSW 2 4 1 2 - - 0.0
10/06:30am 22.9 26.9 22.7 99 0.1 SSW 6 7 3 4 - - 0.0
10/06:00am 22.1 25.6 21.8 98 0.2 SW 6 7 3 4 - - 0.0
10/05:30am 22.3 25.8 21.1 93 0.8 SW 4 4 2 2 - - 0.0
10/05:00am 22.7 25.8 18.7 78 2.5 CALM 0 6 0 3 - - 0.0
10/04:30am 22.7 23.4 15.5 64 4.3 NE 6 9 3 5 - - 0.0
10/04:00am 22.3 24.4 18.9 81 2.2 N 6 9 3 5 - - 0.0
10/03:30am 22.5 25.8 21.8 96 0.5 NNW 7 11 4 6 - - 0.0
10/03:00am 22.4 25.5 22.1 98 0.2 N 9 11 5 6 - - 0.0
10/02:30am 22.9 26.6 22.2 96 0.5 NNW 6 9 3 5 - - 0.0
10/02:00am 23.1 26.0 19.9 82 2.1 N 4 6 2 3 - - 0.0
10/01:30am 23.3 27.1 20.2 83 2.0 CALM 0 2 0 1 - - 0.0
10/01:00am 22.4 26.1 19.9 86 1.6 CALM 0 4 0 2 - - 0.0
10/12:30am 22.9 26.9 21.4 91 1.0 ENE 2 2 1 1 - - 0.0
10/12:00am 22.7 26.9 21.7 94 0.7 SE 2 4 1 2 - - 0.0
 
Date/Time
WST
Tmp

°C
App
Tmp
°C
Dew
Point
°C
Rel
Hum
%
Delta-T

°C
Wind Press
QNH
hPa
Press
MSL
hPa
Rain
since
9 am
mm
Dir
 
Spd
km/h
Gust
km/h
Spd
kts
Gust
kts
09/11:30pm 23.0 26.4 21.6 92 0.9 SSW 6 7 3 4 - - 0.0
09/11:00pm 23.2 26.6 22.0 93 0.8 SW 7 9 4 5 - - 0.0
09/10:30pm 23.5 27.0 22.1 92 0.9 SW 7 9 4 5 - - 0.0
09/10:00pm 23.7 26.7 21.2 86 1.6 WSW 7 9 4 5 - - 0.0
09/09:30pm 24.2 26.7 20.3 79 2.5 SSW 7 13 4 7 - - 0.0
09/09:00pm 25.0 25.8 18.2 66 4.3 SW 11 13 6 7 - - 0.0
09/08:30pm 27.8 26.0 8.1 29 10.7 S 7 11 4 6 - - 0.0
09/08:00pm 27.7 26.1 8.6 30 10.4 S 7 11 4 6 - - 0.0

Latest Capital City Observations: Canberra | Sydney | Melbourne | Brisbane | Adelaide | Perth | Hobart | Darwin

Other Formats:

Comma delimited format used in spreadsheet applications
http://www.bom.gov.au/fwo/IDW60901/IDW60901.94614.axf

JavaScript Object Notation format (JSON) in row-major order
http://www.bom.gov.au/fwo/IDW60901/IDW60901.94614.json